STARLINK-11628, 63139

Orbit data source: Space-Track

STARLINK-11628, 63139 is a payload satellite owned by SpaceX/Seattle (US) in LEO that was launched on Mon, 03 Mar 2025 UTC via an FALCON 9 launch vehicle from the Air Force Eastern Test Range (AFETR). Payload-class satellites include a variety of spacecraft equipped with specific instruments for various scientific and technological missions. These include communications satellites like Starlink; space stations such as the ISS; scientific satellites like the Hubble; Earth observation satellites from companies like Planet Labs, Umbra, and HawkEye 360; GPS; miniature CubeSats for education and research; and military/defense satellites.

Loading next visibility...
Identifier
63139, 2025-043H
Orbit
LEO
Country
Flag of USUS
Related business
Manufacturer
SpaceX/Seattle
Mission
Operational Commercial Communications
Bus & Motor
STARLINK V2MD, Unknown motor
Mass
960 kg wet, ~910 kg dry
Launch date (UTC)
2025-03-03 (11 months ago)
Launch vehicle
FALCON 9
Launch site
Air Force Eastern Test Range (AFETR)
Object type
Payload
Rocket body
Debris
Shape & HBR
Box + 2 Pan, 18.1 m
Radar Cross Section
36.964 m², Large (>1 m²)

Expand to show TLE details & history
Last TLE update: 8 hours ago

TLE from 8 hours ago
0 STARLINK-11628
1 63139U 25043H   26037.15920100  .00421824  00000-0  30999-2 0  9995
2 63139  42.9991  80.7308 0000838 230.3854 129.6940 15.71045583 54513
Epoch: 2026-02-06T03:49Z
TLE epoch observation values (Epoch: 2026-02-06T03:49:14.966Z)
Latitude
-0°
Longitude
-112.88264°
Altitude
356.039 km
Speed
7.697 km/s
True Right ascension
05h 22m 55s
True Declination
0° 00' 00"
Sunlit
Object was in full shadow at epoch
Visualization orbit readout
Latitude
Unknown
Longitude
Unknown
Altitude
Unknown
Speed
Unknown
Apparent Right ascension
Unknown
Apparent Declination
Unknown
Sunlit
N/A
Visualization observer readout
Local Sidereal Time
13:30:12
Azimuth
Unknown
Elevation
Unknown
Doppler factor
Unknown
Orbital elements
Apogee altitude
358.454 km
Perigee altitude
357.325 km
Semi-major axis
6,736.026 km
Eccentricity
0.00008
Inclination
42.9991°
RAAN
80.7308°
Arg. of periapsis
230.3854°
True anomaly
129.70139°
Mean anomaly
129.694°
Eccentric anomaly
129.69769°
Mean motion
3.92588 °/min
Orbital period
91.7 mins
BSTAR
0.0030999
Loading maneuver chart data...
Computing Atmospheric mass density...
Loading historical data...
Loading historical data...
Loading historical data...
Loading historical data...
Loading historical data...
Loading historical data...
Loading historical data...

Documentation

Showing up to 5 results
|